Regional Weather Roundup
Issued by NWS State College, PA

Home | Current Version | Previous Version | Text Only | Print | Product List | Glossary On
Versions: 1 2 3 4 5 6 7 8 9 10 11 12 13 14 15 16 17 18 19 20 21 22 23 24 25 26 27 28 29 30 31 32 33 34 35 36 37 38 39 40 41 42 43 44 45 46 47 48 49 50
000
ASUS41 KCTP 211503
RWRCTP

REGIONAL WEATHER ROUNDUP
NATIONAL WEATHER SERVICE STATE COLLEGE PA
1000 AM EST FRI NOV 21 2014

Note: "fair" indicates few or no clouds below 12,000 feet with no
significant weather and/or obstructions to visibility.

* = STATION THAT DOES NOT REPORT PRECIPITATION /E.G. RAIN...SNOW...ETC/
    THUNDER OR FOG.

PAZ002>004-007>009-013>016-020>023-029>032-211600-
WESTERN PENNSYLVANIA

CITY           SKY/WX    TMP DP  RH WIND       PRES   REMARKS
ERIE           CLOUDY    25  12  58 W12G21    30.39R WCI  14
MEADVILLE      CLOUDY    20  13  74 SW10      30.37R WCI   9
FRANKLIN*      PTSUNNY   19  12  73 W12       30.37R WCI   7
NEW CASTLE       N/A     22  14  71 W5        30.44R
BEAVER COUNTY  MOSUNNY   23  14  68 W8        30.42R WCI  14
BUTLER*        MOSUNNY   23  12  63 W7        30.43R WCI  15
PITTSBURGH INT MOSUNNY   22  14  71 W12       30.43R WCI  10
PITTSBURGH     MOSUNNY   22  10  60 NW7G17    30.42R WCI  13
INDIANA*       CLOUDY    21  14  73 W9        30.42R WCI  11
LATROBE        MOSUNNY   23  14  68 W12       30.43R WCI  12
WASHINGTON CO* SUNNY     25  10  54 W7        30.45R
$$

PAZ004>006-010>012-017>019-024>028-033>037-041-042-045-046-049>053-211600-
CENTRAL PENNSYLVANIA

CITY           SKY/WX    TMP DP  RH WIND       PRES   REMARKS
BRADFORD       SUNNY     18   9  68 W12G18    30.26R WCI   5
DUBOIS         PTSUNNY   19  13  77 W9        30.32R WCI   8
CLEARFIELD     MIX PCPN  21  11  65 NW13      30.34R WCI   9
JOHNSTOWN      PTSUNNY   18  10  71 NW15G22   30.30R WCI   4
ALTOONA        PTSUNNY   24  12  60 NW14      30.36R WCI  12
STATE COLLEGE  MOSUNNY   25  10  54 NW23      30.35R WCI  10
WILLIAMSPORT   MOSUNNY   27   9  46 W14       30.34R
SELINSGROVE    SUNNY     29   9  43 NW16      30.37R
FT INDIANTOWN  SUNNY     28   7  41 W10G25    30.37R
CAPITAL CITY   MOSUNNY   31   8  38 W13G22    30.38R
HARRISBURG     MOSUNNY   30   8  39 NW13      30.38R
YORK           SUNNY     30   8  39 W17G23    30.39R
$$

PAZ038>040-043-044-047-048-054-055-060>062-067>071-211600-
EASTERN PENNSYLVANIA

CITY           SKY/WX    TMP DP  RH WIND       PRES   REMARKS
SCRANTON       CLOUDY    25   9  50 W9        30.27R
MOUNT POCONO   CLOUDY    22   8  55 W22G32    30.19R WCI   6
ALLENTOWN      SUNNY     30   8  39 W15G25    30.31R
QUAKERTOWN*    SUNNY     28   9  43 W10G18    30.32R
READING        SUNNY     31   8  38 NW16G24   30.35R
LANCASTER      SUNNY     29   7  39 NW21G29   30.36R
COATESVILLE    SUNNY     28   9  43 NW22G28   30.34R WCI  15
POTTSTOWN      SUNNY     30   8  39 NW14G28   30.35R
BLUE BELL      SUNNY     32  10  40 NW9G18    30.34R
DOYLESTOWN     SUNNY     29   9  43 NW17G25   30.32R
WILLOW GROVE   NOT AVBL
NORTH PHILA    SUNNY     33   7  33 NW15G25   30.36R
PHILADELPHIA   MOSUNNY   32   7  35 NW22      30.37R
$$



USA.gov is the U.S. government's official web portal to all federal, state and local government web resources and services.